ISS [Segment 01] 1 25544C 98067A 22220.50000000 -.00004444 00000+0 -76938-4 0 11 2 25544 51.6411 77.4449 0005026 95.5084 58.4202 15.50264939 15 ISS [Segment 02] 1 25544C 98067A 22220.75000000 -.00062043 00000+0 -10733-2 0 27 2 25544 51.6433 76.2068 0005036 97.6032 12.4859 15.50302424 10 ISS [Segment 03] 1 25544C 98067A 22221.00173611 -.00061084 00000+0 -10572-2 0 31 2 25544 51.6416 74.9610 0005146 95.4491 340.5187 15.50287604 17 ISS [Segment 04] 1 25544C 98067A 22221.25173611 .00056450 00000+0 97629-3 0 47 2 25544 51.6433 73.7228 0005015 94.6741 297.4623 15.50280790 16 ISS [Segment 05] 1 25544C 98067A 22221.50173611 .00091157 00000+0 15777-2 0 52 2 25544 51.6409 72.4800 0005147 99.1332 249.1958 15.50249914 11 ISS [Segment 06] 1 25544C 98067A 22221.75173611 -.00039303 00000+0 -67966-3 0 65 2 25544 51.6430 71.2426 0005074 100.4351 204.0601 15.50307119 19 ISS [Segment 07] 1 25544C 98067A 22222.00173611 -.00030982 00000+0 -53607-3 0 76 2 25544 51.6409 70.0052 0005171 98.0486 162.6379 15.50288369 12 ISS [Segment 08] 1 25544C 98067A 22222.25173611 -.00303064 00000+0 -52689-2 0 86 2 25544 51.6425 68.7670 0005455 102.0271 114.8431 15.50219433 17 ISS [Segment 09] 1 25544C 98067A 22222.50190559 .00054402 00000+0 94713-3 0 97 2 25544 51.6400 67.5235 0005650 108.9742 64.9026 15.50090220 15 ISS [Segment 10] 1 25544C 98067A 22222.75190559 -.00037280 00000+0 -64861-3 0 104 2 25544 51.6423 66.2868 0005597 109.8859 20.0073 15.50131347 18 ISS [Segment 11] 1 25544C 98067A 22223.00190559 .00010471 00000+0 18228-3 0 111 2 25544 51.6402 65.0493 0005586 108.3351 337.5954 15.50104810 14 ISS [Segment 12] 1 25544C 98067A 22223.25190559 .00023408 00000+0 40708-3 0 121 2 25544 51.6422 63.8114 0005427 108.4049 293.5433 15.50130322 11 ISS [Segment 13] 1 25544C 98067A 22223.50190559 .00132785 00000+0 23108-2 0 133 2 25544 51.6404 62.5683 0005647 112.9194 245.0768 15.50082728 12 ISS [Segment 14] 1 25544C 98067A 22223.75190559 .00003067 00000+0 53333-4 0 146 2 25544 51.6422 61.3317 0005588 113.2023 200.8187 15.50135062 16 ISS [Segment 15] 1 25544C 98067A 22224.00190559 .00032320 00000+0 56238-3 0 156 2 25544 51.6406 60.0941 0005547 111.3327 158.7348 15.50111514 14 ISS [Segment 16] 1 25544C 98067A 22224.25190559 -.00015973 00000+0 -27766-3 0 165 2 25544 51.6426 58.8558 0005348 112.2657 113.8290 15.50151976 14 ISS [Segment 17] 1 25544C 98067A 22224.50190559 .00081689 00000+0 14207-2 0 174 2 25544 51.6410 57.6126 0005616 116.0903 66.0590 15.50112781 12 ISS [Segment 18] 1 25544C 98067A 22224.75190559 .00010668 00000+0 18545-3 0 181 2 25544 51.6426 56.3765 0005531 115.7120 22.4798 15.50143148 14 ISS [Segment 19] 1 25544C 98067A 22225.00190559 .00050464 00000+0 87777-3 0 192 2 25544 51.6408 55.1385 0005512 114.2370 340.0104 15.50118092 19 ISS [Segment 20] 1 25544C 98067A 22225.25190559 -.00030866 00000+0 -53642-3 0 201 2 25544 51.6423 53.9001 0005345 114.6662 295.6194 15.50163611 10 ISS [Segment 21] 1 25544C 98067A 22225.50190559 .00143366 00000+0 24925-2 0 219 2 25544 51.6411 52.6573 0005684 119.1288 247.2212 15.50107561 13 ISS [Segment 22] 1 25544C 98067A 22225.75190559 .00040214 00000+0 69882-3 0 227 2 25544 51.6423 51.4215 0005559 118.3872 204.0122 15.50146359 16 ISS [Segment 23] 1 25544C 98067A 22226.00190559 .00057946 00000+0 10075-2 0 236 2 25544 51.6405 50.1835 0005463 117.2070 161.2541 15.50127005 18 ISS [Segment 24] 1 25544C 98067A 22226.25190559 -.00082970 00000+0 -14415-2 0 243 2 25544 51.6418 48.9449 0005343 118.9371 115.5700 15.50184108 13 ISS [Segment 25] 1 25544C 98067A 22226.50190559 .00089671 00000+0 15582-2 0 251 2 25544 51.6410 47.7023 0005657 123.3487 67.2265 15.50135440 10 ISS [Segment 26] 1 25544C 98067A 22226.75190559 .00046981 00000+0 81618-3 0 260 2 25544 51.6419 46.4666 0005532 122.2753 24.3627 15.50153630 11 ISS [Segment 27] 1 25544C 98067A 22227.00190559 .00059105 00000+0 10273-2 0 270 2 25544 51.6408 45.2282 0005406 121.3032 341.4036 15.50137456 15 ISS [Segment 28] 1 25544C 98067A 22227.25190559 -.00094277 00000+0 -16375-2 0 288 2 25544 51.6420 43.9896 0005237 122.6422 296.1219 15.50195411 18 ISS [Segment 29] 1 25544C 98067A 22227.50190559 .00112631 00000+0 19563-2 0 292 2 25544 51.6419 42.7471 0005613 126.9097 247.9328 15.50141735 10 ISS [Segment 30] 1 25544C 98067A 22227.75190559 .00035171 00000+0 61075-3 0 300 2 25544 51.6424 41.5113 0005459 125.2701 205.6444 15.50169173 14 ISS [Segment 31] 1 25544C 98067A 22228.00190559 .00052106 00000+0 90519-3 0 312 2 25544 51.6418 40.2730 0005336 124.5996 162.3928 15.50153839 18 ISS [Segment 32] 1 25544C 98067A 22228.25190559 -.00118245 00000+0 -20532-2 0 326 2 25544 51.6425 39.0339 0005212 126.2485 116.8152 15.50209504 16 ISS [Segment 33] 1 25544C 98067A 22228.50190559 .00081716 00000+0 14184-2 0 331 2 25544 51.6429 37.7919 0005583 129.9662 69.1818 15.50167783 18 ISS [Segment 34] 1 25544C 98067A 22228.75190559 .00000018 00000+0 31472-6 0 348 2 25544 51.6427 36.5562 0005456 127.6993 27.5352 15.50188077 18 ISS [Segment 35] 1 25544C 98067A 22229.00190559 .00066793 00000+0 11598-2 0 353 2 25544 51.6422 35.3177 0005294 127.3618 343.9612 15.50163164 17 ISS [Segment 36] 1 25544C 98067A 22229.25190559 -.00119525 00000+0 -20750-2 0 365 2 25544 51.6422 34.0784 0005202 128.9447 298.4613 15.50216678 17 ISS [Segment 37] 1 25544C 98067A 22229.50190559 .00062874 00000+0 10910-2 0 373 2 25544 51.6427 32.8371 0005565 132.8833 250.6135 15.50181122 19 ISS [Segment 38] 1 25544C 98067A 22229.75190559 -.00020137 00000+0 -34945-3 0 384 2 25544 51.6421 31.6013 0005384 130.8806 208.7109 15.50201470 14 ISS [Segment 39] 1 25544C 98067A 22230.00190559 .00050571 00000+0 87780-3 0 393 2 25544 51.6420 30.3629 0005250 130.7281 164.9586 15.50178224 12 ISS [Segment 40] 1 25544C 98067A 22230.25190559 -.00141762 00000+0 -24606-2 0 404 2 25544 51.6414 29.1232 0005234 133.0252 118.7562 15.50226418 17 ISS [Segment 41] 1 25544C 98067A 22230.50190559 .00059070 00000+0 10246-2 0 416 2 25544 51.6427 27.8823 0005546 137.1170 70.7612 15.50194862 12 ISS [Segment 42] 1 25544C 98067A 22230.75277778 -.00056041 00000+0 -97218-3 0 425 2 25544 51.6417 26.6419 0005400 134.5469 34.3057 15.50219717 16 ISS [Segment 43] 1 25544C 98067A 22231.00277778 .00088969 00000+0 15436-2 0 438 2 25544 51.6425 25.4035 0005174 135.2375 349.7210 15.50182752 10 ISS [Segment 44] 1 25544C 98067A 22231.25277778 -.00098904 00000+0 -17160-2 0 444 2 25544 51.6417 24.1633 0005154 137.2369 303.8291 15.50227332 18 ISS [Segment 45] 1 25544C 98067A 22231.50277778 .00008854 00000+0 15351-3 0 457 2 25544 51.6432 22.9227 0005452 140.4206 256.7506 15.50220163 17 ISS [Segment 46] 1 25544C 98067A 22231.75277778 -.00088103 00000+0 -15278-2 0 469 2 25544 51.6422 21.6863 0005286 137.7128 215.5757 15.50239206 14 ISS [Segment 47] 1 25544C 98067A 22232.00277778 .00069064 00000+0 11975-2 0 472 2 25544 51.6432 20.4481 0005098 138.3339 171.0716 15.50204659 15 ISS [Segment 48] 1 25544C 98067A 22232.25277778 -.00095951 00000+0 -16643-2 0 483 2 25544 51.6419 19.2071 0005156 140.0176 125.5122 15.50235834 19 ISS [Segment 49] 1 25544C 98067A 22232.50277778 .00024434 00000+0 42338-3 0 499 2 25544 51.6436 17.9673 0005404 143.1938 78.4520 15.50232891 15 ISS [Segment 50] 1 25544C 98067A 22232.75277778 -.00099370 00000+0 -17225-2 0 507 2 25544 51.6421 16.7309 0005257 140.1536 37.6225 15.50253681 18 ISS [Segment 51] 1 25544C 98067A 22233.00277778 .00088473 00000+0 15333-2 0 515 2 25544 51.6432 15.4925 0005046 141.2600 352.6449 15.50214696 11 ISS [Segment 52] 1 25544C 98067A 22233.25277778 -.00051230 00000+0 -88821-3 0 529 2 25544 51.6412 14.2513 0005167 143.5263 306.5155 15.50236307 18 ISS [Segment 53] 1 25544C 98067A 22233.50277778 -.00050739 00000+0 -87891-3 0 537 2 25544 51.6432 13.0121 0005343 146.1167 260.0478 15.50260476 16 ISS [Segment 54] 1 25544C 98067A 22233.75277778 -.00122329 00000+0 -21199-2 0 548 2 25544 51.6414 11.7754 0005186 144.0165 218.2904 15.50267459 10 ISS [Segment 55] 1 25544C 98067A 22234.00277778 .00082783 00000+0 14340-2 0 555 2 25544 51.6429 10.5372 0005004 144.8926 173.5523 15.50229565 17 ISS [Segment 56] 1 25544C 98067A 22234.25277778 -.00032931 00000+0 -57078-3 0 561 2 25544 51.6408 9.2955 0005189 147.2325 127.3628 15.50240354 12 ISS [Segment 57] 1 25544C 98067A 22234.50277778 -.00010768 00000+0 -18644-3 0 570 2 25544 51.6430 8.0568 0005341 150.0725 80.6566 15.50263313 12 ISS [Segment 58] 1 25544C 98067A 22234.75277778 -.00090243 00000+0 -15632-2 0 587 2 25544 51.6415 6.8196 0005137 147.6047 39.2780 15.50271315 19 ISS [Segment 59] 1 25544C 98067A 22235.00277778 .00100925 00000+0 17472-2 0 598 2 25544 51.6434 5.5815 0004942 149.5263 353.5041 15.50242248 13 ISS [Segment 60] 1 25544C 98067A 22235.25277778 .00018431 00000+0 31926-3 0 608 2 25544 51.6414 4.3393 0005139 151.7214 307.4735 15.50244932 19